This is the latest recevied weather packets stored in our database for station/object KE8WMS. If no packets are shown the sender has not sent any weather packets the latest 10 day(s).
| Time | Temp. | Humidity | Pressure | Rain* | Wind** | Luminosity | Snow |
|---|---|---|---|---|---|---|---|
| 1788036689 | 26.11° C | 62% | 1016.8 hPa | 0 mm | - | 303 W/m² | - |
| 1788036385 | 25.56° C | 62% | 1016.6 hPa | 0 mm | - | 322 W/m² | - |
| 1788036084 | 25.56° C | 63% | 1016.5 hPa | 0 mm | - | 309 W/m² | - |
| 1788035784 | 25.56° C | 61% | 1016.6 hPa | 0 mm | - | 240 W/m² | - |
| 1788035480 | 26.67° C | 59% | 1016.8 hPa | 0 mm | - | 254 W/m² | - |
| 1788035175 | 27.22° C | 60% | 1016.7 hPa | 0 mm | - | 337 W/m² | - |
| 1788034871 | 28.33° C | 53% | 1016.8 hPa | 0 mm | - | 478 W/m² | - |
| 1788034566 | 27.78° C | 51% | 1016.8 hPa | 0 mm | - | 229 W/m² | - |
| 1788034263 | 27.78° C | 50% | 1016.9 hPa | 0 mm | - | 361 W/m² | - |
| 1788033962 | 27.78° C | 51% | 1017 hPa | 0 mm | - | 289 W/m² | - |
| 1788033657 | 28.33° C | 48% | 1016.9 hPa | 0 mm | - | 524 W/m² | - |
| 1788033356 | 27.78° C | 50% | 1016.9 hPa | 0 mm | - | 482 W/m² | - |
| 1788033051 | 27.22° C | 50% | 1017.5 hPa | 0 mm | - | 201 W/m² | - |
| 1788032751 | 28.33° C | 49% | 1017 hPa | 0 mm | - | 168 W/m² | - |
| 1788032446 | 28.89° C | 49% | 1017.1 hPa | 0 mm | - | 180 W/m² | - |
| 1788032143 | 28.89° C | 48% | 1017 hPa | 0 mm | - | 540 W/m² | - |
| 1788031839 | 27.78° C | 49% | 1016.9 hPa | 0 mm | - | 646 W/m² | - |
| 1788031539 | 27.78° C | 50% | 1017 hPa | 0 mm | - | 558 W/m² | - |
| 1788031238 | 28.33° C | 48% | 1017.2 hPa | 0 mm | - | 144 W/m² | - |
| 1788030938 | 28.33° C | 49% | 1016.9 hPa | 0 mm | - | 531 W/m² | - |
| 1788030637 | 28.89° C | 49% | 1016.9 hPa | 0 mm | - | 644 W/m² | - |
| 1788030332 | 28.89° C | 52% | 1016.8 hPa | 0 mm | - | 635 W/m² | - |
| 1788030028 | 28.33° C | 52% | 1017 hPa | 0 mm | - | 647 W/m² | - |
| 1788029728 | 28.33° C | 47% | 1017.2 hPa | 0 mm | - | 643 W/m² | - |
| 1788029423 | 28.33° C | 53% | 1017.3 hPa | 0 mm | - | 652 W/m² | - |
* Rain latest hour (hover to see other rain measurements)
** Current wind speed in m/s (hover to see current wind gust speed)